Regional Weather Roundup
Issued by NWS

Home | Current Version | Previous Version | Graphics & Text | Print | Product List | Glossary On
Versions: 1 2 3 4 5 6 7 8 9 10 11 12 13 14 15 16 17 18 19 20 21 22 23 24 25 26 27 28 29 30 31 32 33 34 35 36 37 38 39 40 41 42 43 44 45 46 47 48 49 50
000
ASUS43 KLSX 210457
RWRMO

WEATHER SUMMARY FOR MISSOURI
NATIONAL WEATHER SERVICE SPRINGFIELD MO
1100 PM CST MON FEB 20 2017

NOTE: "FAIR" INDICATES FEW OR NO CLOUDS BELOW 12,000 FEET WITH NO
       SIGNIFICANT WEATHER AND/OR OBSTRUCTIONS TO VISIBILITY.
       CURRENT SKY AND/OR WEATHER CONDITIONS ARE NOT AVAILABLE FOR
       CHILLICOTHE AND FARMINGTON.

MOZ001>031-035>038-043-044-053-054-210600-
...NORTHERN AND WESTERN MISSOURI...

CITY           SKY/WX    TMP DP  RH WIND       PRES   REMARKS
KANSAS CTY INT CLOUDY    56  51  84 W5        29.92S
LEE`S SUMMIT   CLOUDY    58  52  80 W6        29.92S
ST JOSEPH      MOCLDY    56  52  86 N12       29.92S
CHILLICOTHE      N/A     59  52  77 W5        29.92R

$$
MOZ066>068-077>081-088>096-101>105-210600-
...SOUTHWEST MISSOURI...

CITY           SKY/WX    TMP DP  RH WIND       PRES   REMARKS
SPRINGFIELD    LGT RAIN  57  55  93 CALM      29.93F
JOPLIN         CLOUDY    56  54  93 S3        29.93S

$$
MOZ032>034-039>042-045>050-055>058-069>072-210600-
...CENTRAL MISSOURI...

CITY           SKY/WX    TMP DP  RH WIND       PRES   REMARKS
COLUMBIA       NOT AVBL
JEFFERSON CITY LGT RAIN  59  59 100 E3        29.94R VSB 3/4
ROLLA          RAIN      59  59 100 CALM      29.94R FOG
SEDALIA        CLOUDY    58  55  90 SW6       29.94S
WARRENSBURG    CLOUDY    55  52  88 S3        29.92R

$$
MOZ051-052-059>065-210600-
...EAST CENTRAL MISSOURI...

CITY           SKY/WX    TMP DP  RH WIND       PRES   REMARKS
ST LOUIS INTL  CLOUDY    67  54  63 S6        29.93R

$$
MOZ072>076-082>087-097>100-106>115-210600-
...SOUTH CENTRAL AND SOUTHEAST MISSOURI...

CITY           SKY/WX    TMP DP  RH WIND       PRES   REMARKS
CAPE GIRARDEAU CLOUDY    62  50  64 SE12      29.93F
POPLAR BLUFF   PTCLDY    62  55  77 E3        29.90F
WEST PLAINS    RAIN      61  60  97 S9        29.95R FOG

$$


USA.gov is the U.S. government's official web portal to all federal, state and local government web resources and services.